Theta_e
318 312 311 313 312 312 316 319 316 311 312 314 311 313 320 321 321 319 314 319 322 319 325 330 327 325 325 323 322 323 324 324 320 316 317 318 316 318 319 317 318 320 318 319 321 323 322 320 322 323 320 319 319 319 321 321 325 327 320 318 326 332 329 322 325 335 335 326 326 328 325 326 330 328 327 331 334 329 322 323 331 333 333 337 343 349 352
316 312 311 313 312 312 316 319 315 310 310 310 311 315 319 320 322 323 318 319 320 319 322 326 329 333 329 321 319 320 320 321 319 316 319 321 319 319 319 318 318 317 318 321 319 320 321 319 321 324 321 321 321 322 323 324 325 323 321 323 320 320 328 328 328 341 344 334 332 330 326 330 334 330 329 333 339 338 330 330 341 346 343 341 344 350 352
315 311 311 313 313 313 316 318 316 310 309 310 312 315 319 322 323 326 326 321 320 325 324 322 328 331 326 322 321 319 318 319 318 316 320 322 319 319 318 316 318 320 321 322 321 322 323 321 323 324 322 323 324 323 324 325 327 329 335 338 324 318 329 330 327 335 341 341 339 330 326 335 336 333 333 335 340 342 335 336 347 350 347 347 351 352 351
314 311 311 312 313 313 316 319 316 310 309 313 313 313 318 322 322 328 335 331 329 332 326 321 325 327 325 327 326 320 317 318 317 316 317 317 316 317 318 317 318 321 323 324 324 323 324 325 327 327 327 326 323 324 324 325 335 343 342 341 336 330 330 335 341 343 340 341 343 335 332 335 331 331 338 338 340 344 340 342 347 348 348 350 351 350 351
313 311 310 311 312 313 316 319 315 310 311 316 316 316 321 324 325 330 336 337 339 341 333 329 332 331 327 330 329 323 320 317 315 316 315 316 318 318 317 318 318 319 323 325 323 324 328 330 329 327 327 328 326 325 323 325 340 347 335 335 344 337 326 331 343 343 338 340 341 336 334 333 328 332 338 338 341 345 347 347 344 343 348 351 350 351 351
312 310 311 311 311 313 316 319 316 310 312 317 319 323 327 327 328 330 330 335 343 343 337 335 335 330 328 332 330 322 320 319 316 315 316 315 317 319 319 320 318 317 321 325 324 327 330 328 329 328 327 328 329 330 325 324 335 339 329 334 344 334 322 323 326 328 331 332 330 331 333 332 333 337 338 338 341 344 346 348 347 346 350 351 350 351 352
311 310 311 310 311 312 315 318 317 311 312 317 320 326 331 331 334 334 329 333 339 337 334 335 334 331 332 336 332 320 317 320 316 315 320 318 318 322 321 319 319 322 335 341 333 329 328 326 327 329 328 327 328 329 327 323 329 331 324 330 339 332 329 331 326 324 329 326 324 330 334 335 339 341 340 338 340 341 343 344 346 347 349 348 348 350 352
311 310 310 310 311 311 313 317 317 312 311 317 320 324 330 333 335 334 333 339 342 337 334 334 334 334 332 332 330 322 318 320 318 317 323 321 319 321 320 319 321 326 340 346 334 330 334 333 329 328 327 327 328 329 325 321 326 329 321 323 328 323 326 340 337 328 329 328 326 330 334 336 339 340 340 338 338 343 344 343 345 347 346 347 347 349 350
310 310 310 310 310 311 312 315 318 314 310 314 320 321 320 321 323 325 331 344 346 339 336 335 332 334 334 332 332 327 323 323 320 316 321 323 320 321 319 319 321 322 327 331 325 327 334 331 330 333 327 322 327 327 323 322 325 325 321 322 326 323 325 340 341 329 325 326 327 331 332 332 336 338 338 337 338 342 342 343 346 346 346 348 348 348 349
309 310 310 310 310 311 312 314 317 317 310 309 315 317 316 318 322 324 329 339 342 339 339 337 333 333 334 332 331 327 324 324 320 316 318 320 318 319 318 319 326 325 322 322 321 322 325 321 324 330 323 317 322 323 323 324 323 324 324 320 324 331 332 331 329 325 326 328 328 330 331 331 337 339 336 335 338 341 342 344 346 347 348 350 349 347 346
309 310 310 310 310 311 312 313 315 317 315 312 312 313 314 317 323 327 329 334 339 339 338 338 339 339 335 331 328 327 325 324 322 320 321 320 316 316 318 322 329 329 324 323 324 321 318 316 318 320 317 316 317 317 319 322 320 326 328 320 325 342 341 330 324 323 329 335 332 333 337 337 337 336 334 334 338 342 346 346 345 346 348 348 347 346 346
309 310 310 310 311 311 311 312 313 314 315 314 313 312 311 312 318 325 330 333 339 341 339 339 340 337 332 330 329 328 327 324 323 322 321 320 316 313 318 326 328 327 322 320 322 321 317 318 323 322 321 326 327 319 316 317 318 323 325 323 331 343 336 329 328 324 327 338 340 338 339 337 335 337 339 338 337 337 341 342 341 344 346 346 347 347 346
309 310 310 309 310 311 311 311 312 313 314 315 314 314 312 312 316 326 331 333 339 343 340 337 337 334 331 331 332 329 326 323 324 324 319 319 319 315 320 327 325 322 319 318 327 330 322 323 331 330 331 339 340 326 318 320 321 321 323 329 337 340 332 327 327 324 325 334 340 339 336 334 334 337 338 337 336 336 340 344 343 342 342 344 347 346 344
309 309 310 310 310 310 311 311 311 312 313 314 314 315 314 311 316 326 330 330 335 339 332 329 334 336 332 331 331 329 327 325 327 328 322 319 321 317 318 322 318 317 319 324 335 336 327 330 336 334 336 339 331 321 322 328 326 319 321 329 336 338 335 325 321 323 329 335 335 334 333 332 333 337 339 340 339 337 341 348 348 343 340 343 345 344 343
310 309 309 310 310 310 311 312 312 311 313 314 315 316 313 310 313 320 325 328 334 336 331 327 330 332 330 331 330 328 331 330 329 333 330 323 320 317 316 317 314 314 322 331 339 337 330 330 329 325 328 328 322 322 327 328 325 321 323 328 329 329 329 324 320 323 333 340 336 330 331 334 337 341 342 341 337 334 338 347 349 345 342 342 344 344 343
310 310 309 310 310 310 311 312 311 311 312 313 315 314 312 312 313 316 321 326 327 327 328 327 326 327 328 331 330 328 329 328 328 332 331 324 319 316 316 315 312 317 330 341 346 344 333 329 329 328 331 331 325 323 326 325 324 323 325 329 330 329 333 336 331 326 329 338 340 335 336 339 343 345 343 337 336 334 335 342 347 346 342 342 343 344 344
310 310 310 310 310 310 311 311 310 310 312 312 314 314 312 313 315 316 321 327 325 327 331 328 325 331 331 329 331 331 328 328 328 326 323 322 321 317 317 319 317 320 330 338 343 342 332 328 328 326 330 335 329 320 322 326 324 322 326 330 332 335 341 341 336 332 336 341 342 339 338 336 338 343 342 334 331 331 332 339 345 345 342 342 344 345 345
310 310 310 310 310 310 310 310 310 310 311 311 313 314 313 313 314 315 320 327 329 332 333 324 321 330 329 322 325 328 326 328 330 328 329 330 327 320 319 323 320 317 327 340 344 340 330 326 327 327 328 330 326 321 324 326 323 325 329 328 328 334 339 339 337 338 343 345 341 337 338 339 338 342 340 332 327 328 333 339 343 344 344 343 344 345 344
310 310 310 310 310 310 310 311 310 310 311 311 312 313 313 314 316 315 318 326 328 328 328 322 320 324 321 318 323 324 322 324 325 325 328 328 326 324 323 324 323 323 333 343 341 334 327 322 329 336 333 330 330 327 323 321 322 328 329 325 326 331 332 333 334 333 336 345 345 338 336 338 338 339 337 331 328 330 335 338 340 342 344 343 344 344 342
310 310 309 310 310 310 310 310 310 310 310 310 311 313 313 314 316 315 316 322 327 328 326 321 319 321 318 317 321 320 318 321 324 325 327 326 327 328 322 323 328 328 334 337 329 325 327 327 329 332 330 334 337 329 323 324 325 326 327 327 330 332 329 329 331 330 332 340 342 337 334 333 332 332 332 332 333 337 340 340 340 343 346 345 344 342 339
309 310 310 310 310 310 310 310 310 310 310 310 310 312 313 313 314 313 313 317 323 327 326 320 319 322 320 319 319 316 315 318 319 321 325 327 328 328 328 336 338 331 335 341 332 327 334 337 334 330 328 333 333 325 328 335 329 321 325 329 330 332 332 331 332 334 338 340 339 339 341 338 333 333 336 337 336 338 343 345 342 341 343 343 343 340 335
309 309 310 310 310 310 310 310 311 310 310 310 310 311 313 313 314 314 314 315 318 322 323 321 320 320 320 319 319 318 317 317 315 315 318 323 327 330 334 344 342 330 335 345 337 328 332 337 335 331 327 330 332 328 329 334 331 327 327 327 327 330 335 337 333 330 334 340 341 342 340 336 333 336 341 339 334 335 343 347 343 340 340 341 343 339 333
309 309 310 310 310 310 310 310 310 309 309 310 310 311 312 312 313 314 314 315 318 321 320 318 319 322 322 320 319 319 319 319 318 317 315 317 326 332 333 335 333 330 337 347 344 338 340 340 338 335 332 334 339 336 327 325 335 340 331 325 328 331 334 340 335 328 330 333 333 333 332 331 332 335 336 336 336 337 341 344 342 340 340 341 341 337 333
309 309 309 309 309 310 310 310 309 309 309 309 310 311 311 311 313 314 316 319 322 324 323 321 322 326 327 323 320 321 321 319 319 320 317 317 322 329 329 329 330 332 335 336 336 340 344 338 332 332 335 336 337 336 330 326 333 339 332 328 332 332 335 340 336 331 335 337 332 330 332 332 333 334 333 334 336 337 341 344 343 341 341 342 340 336 333
309 309 309 309 309 310 310 309 309 309 309 309 309 310 311 312 312 313 316 320 321 323 327 329 326 322 320 321 320 318 318 318 318 320 320 318 319 324 325 325 327 330 331 329 330 337 340 336 332 333 334 332 329 329 332 331 331 333 334 333 333 330 332 337 338 337 339 337 333 332 331 329 330 332 333 336 337 337 339 342 342 342 341 338 335 333 334
309 309 309 309 309 309 309 309 309 309 309 309 310 310 310 311 312 312 313 316 318 320 325 330 328 321 318 320 319 314 316 318 319 321 321 319 320 322 323 323 322 325 331 335 340 345 343 337 336 334 330 327 328 331 336 333 329 331 335 336 334 330 327 332 338 338 334 330 330 332 331 329 329 329 331 335 337 338 339 339 339 341 341 338 334 332 332
309 309 308 309 309 309 309 309 309 309 309 309 310 310 310 310 311 312 312 314 318 321 324 326 328 324 320 319 317 314 317 319 319 320 320 320 321 320 320 324 326 328 334 335 335 341 342 333 329 333 335 332 331 333 334 331 330 334 336 332 330 330 328 331 336 337 334 333 332 331 332 333 332 331 333 334 334 337 339 338 339 342 342 341 339 334 330
309 308 308 308 308 308 308 309 309 309 309 310 311 311 312 312 312 313 314 314 316 320 322 323 324 323 321 320 317 315 318 318 317 320 320 319 322 321 320 325 330 331 336 334 329 333 338 330 327 335 339 334 331 330 329 326 328 336 339 334 335 337 335 334 338 340 337 334 330 330 334 334 331 331 334 333 332 337 339 338 340 342 338 337 341 340 335
308 308 308 307 307 308 308 308 309 309 310 311 312 312 313 314 314 314 315 314 314 316 319 322 324 324 324 321 317 314 314 316 318 320 318 318 321 320 318 323 331 335 338 337 334 333 336 336 338 338 333 329 331 331 328 328 331 338 343 342 342 342 336 332 333 336 335 331 329 332 336 334 330 331 335 331 328 334 339 338 339 338 332 329 335 337 336
308 307 307 307 307 307 307 308 309 309 310 312 312 313 317 319 316 315 315 315 314 316 320 325 328 328 324 322 320 316 315 316 318 318 316 316 320 320 318 324 336 341 338 335 333 333 335 338 339 335 330 332 334 328 327 332 340 346 347 344 341 340 336 330 330 336 339 335 330 330 333 334 331 331 332 327 323 328 334 334 332 331 326 326 329 330 328
307 307 307 308 308 308 308 308 309 309 311 312 312 315 321 323 318 315 315 315 315 317 321 324 326 326 324 323 322 318 316 317 318 317 316 316 318 319 319 321 328 335 338 335 331 331 334 337 336 331 330 337 342 340 337 338 342 344 343 340 340 342 340 335 334 337 339 335 330 329 331 332 330 329 332 329 324 324 329 329 326 326 325 324 326 328 327
307 307 308 308 308 309 309 309 309 310 311 312 313 314 318 318 316 314 316 316 315 317 322 324 324 324 325 325 323 319 318 320 320 320 320 320 322 324 325 326 331 338 342 340 333 328 331 339 340 333 329 334 342 345 342 340 346 347 340 338 341 342 339 337 336 334 331 330 331 332 331 329 329 331 333 329 322 321 324 324 322 324 324 323 324 327 328
307 308 308 308 308 309 310 310 310 310 311 312 312 313 314 315 315 316 316 315 315 316 320 323 324 323 323 325 324 321 320 325 331 331 327 324 326 331 332 334 340 341 333 333 335 332 332 340 342 333 329 335 341 340 335 338 349 350 340 338 341 339 335 335 335 332 329 329 332 334 332 330 329 327 326 324 321 320 320 320 320 323 325 326 328 329 327
308 309 309 309 310 310 310 310 310 311 312 312 312 313 314 315 316 317 316 315 315 317 319 324 326 326 325 325 327 326 326 330 335 335 330 325 324 330 334 337 342 338 326 326 333 331 330 338 340 332 330 335 335 331 334 341 347 346 340 338 338 335 332 331 331 331 331 334 338 338 330 325 324 324 325 327 325 322 320 320 321 326 330 332 332 329 325
309 309 310 310 311 310 310 310 310 311 312 312 313 315 315 316 317 317 317 316 317 320 323 323 323 325 327 330 332 331 330 332 332 330 331 329 326 331 339 339 337 335 330 327 330 330 329 333 335 333 333 333 330 331 339 344 342 338 336 336 333 331 331 330 330 331 333 338 343 340 329 325 328 328 329 332 330 326 325 324 322 326 331 333 331 326 322
310 310 311 311 311 310 311 311 311 312 313 313 315 316 317 318 318 317 317 316 317 323 327 325 323 325 326 327 329 329 325 329 332 330 332 336 333 334 341 340 332 332 333 330 331 333 331 330 333 334 332 332 334 339 344 345 342 338 335 334 332 331 331 331 331 331 331 333 338 336 330 329 331 330 329 331 328 327 330 329 324 325 331 334 333 328 322
310 311 312 311 311 312 313 312 312 313 315 315 316 316 316 318 318 316 316 316 316 320 323 323 325 328 325 323 328 330 324 326 334 332 331 338 338 334 336 338 334 332 332 333 334 335 330 330 335 337 336 338 345 348 346 345 342 338 335 332 330 329 332 332 330 330 330 330 331 331 328 328 330 330 330 330 328 327 329 328 323 322 326 331 331 328 322
311 311 311 312 313 315 317 316 315 317 318 317 316 318 319 320 321 321 321 321 321 322 322 320 323 328 325 321 326 328 321 323 333 333 329 333 336 332 331 335 335 330 329 333 336 332 329 330 333 335 339 343 344 343 344 345 339 334 332 331 330 329 330 328 327 329 332 330 328 328 328 328 330 331 329 329 329 327 323 320 316 315 316 319 321 320 318
311 311 311 313 315 316 318 318 318 319 319 317 317 320 321 321 323 326 324 323 324 325 322 320 323 327 324 320 322 324 321 323 332 334 330 330 334 333 330 329 329 327 329 334 334 330 330 335 335 333 337 342 338 336 342 342 334 330 330 330 329 327 326 326 327 329 331 331 329 328 327 327 329 331 332 331 330 325 317 313 313 314 314 316 317 316 316
311 312 313 315 316 316 318 318 317 318 319 318 318 320 321 320 324 326 323 321 323 324 323 323 325 324 320 318 320 321 322 325 332 337 334 329 328 331 330 328 327 328 330 334 336 334 333 337 335 332 336 342 341 339 343 344 337 331 330 329 326 323 321 322 323 322 323 324 324 321 319 320 323 326 329 330 331 330 323 317 314 315 316 316 316 317 317
312 313 315 316 316 316 317 318 318 318 319 318 319 321 322 321 322 323 322 321 323 323 322 324 324 321 319 319 320 319 321 326 332 337 338 331 325 328 330 328 326 328 331 334 336 335 332 334 335 335 340 346 344 340 341 343 339 333 329 327 324 320 318 320 321 319 320 324 323 319 317 317 318 318 319 320 321 323 321 317 314 315 317 317 317 317 317
312 313 314 314 315 316 317 319 319 320 320 321 322 324 324 323 321 321 322 323 324 323 322 322 323 324 323 320 319 319 321 325 330 336 338 332 326 330 333 329 325 327 332 335 334 331 330 331 334 337 342 347 346 342 341 341 339 334 331 328 324 320 320 323 323 320 320 321 321 318 317 317 317 317 317 317 316 316 316 317 317 317 317 317 317 317 316
313 313 313 314 316 317 320 321 321 320 323 325 326 325 325 324 322 323 324 324 324 324 322 319 319 321 320 318 319 320 320 322 330 338 336 329 326 330 334 332 329 330 333 334 332 331 333 335 336 339 342 346 345 342 339 336 335 333 330 325 321 319 320 321 322 321 320 319 319 318 318 318 318 317 317 318 318 317 316 317 317 316 315 315 314 314 314
313 314 315 317 318 319 321 322 321 320 323 325 325 325 326 325 324 324 325 325 325 326 325 323 320 320 321 322 325 325 322 324 331 335 332 328 329 330 331 334 335 333 331 332 333 333 334 336 338 339 342 345 346 344 338 332 331 332 329 324 320 319 319 320 321 321 320 319 318 318 318 317 317 317 318 318 318 316 314 314 315 314 314 314 313 313 313
314 315 317 319 320 319 320 321 320 320 322 324 324 325 326 327 327 326 325 325 326 327 328 327 324 323 325 326 325 328 330 329 329 330 329 329 331 331 332 335 337 332 328 333 335 332 331 336 341 341 341 343 345 343 337 330 328 329 329 325 322 321 322 324 325 324 321 318 317 317 317 317 316 315 315 316 316 316 314 313 313 313 313 312 312 312 312
316 317 318 321 322 320 319 321 321 321 322 323 324 325 326 327 329 329 326 325 324 325 326 327 325 323 324 323 321 328 335 332 325 326 329 329 330 332 333 331 330 328 329 333 334 331 331 338 343 343 342 342 340 336 332 328 326 326 326 325 324 323 323 323 323 321 319 318 317 317 316 315 314 314 313 313 314 314 313 312 312 312 312 312 312 312 312
316 316 317 320 322 320 319 321 323 324 324 324 326 327 325 323 323 325 325 326 324 322 324 329 328 324 323 322 320 325 332 331 325 326 329 328 328 332 332 328 328 331 332 332 332 334 339 344 345 343 344 344 340 333 329 327 326 326 325 325 324 323 323 322 321 319 318 317 316 315 313 313 313 312 312 312 312 312 312 312 312 312 312 312 312 312 312
316 316 317 320 322 320 320 321 322 322 323 323 322 323 322 321 321 321 321 323 323 322 324 328 329 325 325 326 325 325 328 329 326 326 329 329 328 330 330 329 329 331 332 332 335 341 346 346 343 341 340 339 336 332 329 326 325 325 324 325 325 324 324 323 321 318 316 316 314 313 312 312 312 312 311 311 311 311 312 311 311 311 311 312 312 312 312
315 315 317 319 320 320 321 322 321 321 323 323 321 322 323 323 322 322 322 323 326 326 326 328 331 328 325 326 328 328 327 328 326 325 327 329 329 329 330 331 330 330 333 337 339 343 347 345 341 338 337 335 332 329 326 324 324 324 323 323 323 321 320 319 318 316 315 314 313 312 312 311 311 311 311 311 311 311 311 311 311 311 311 311 311 311 312
313 314 317 319 320 322 324 323 321 322 326 326 324 325 325 324 325 326 325 325 329 330 327 326 330 330 325 324 328 330 329 330 329 327 327 331 331 328 328 331 332 336 343 344 341 342 346 345 341 340 339 334 329 327 325 324 325 324 322 320 319 318 317 317 316 314 314 313 313 312 312 311 311 311 311 311 311 311 311 311 311 311 311 311 311 311 312
313 315 317 318 319 321 323 323 322 323 324 324 325 326 325 325 328 329 325 324 329 334 330 326 327 328 328 328 330 329 327 328 329 328 330 334 333 330 331 335 338 343 349 348 342 340 342 340 337 339 338 332 327 325 325 324 323 322 319 318 317 317 316 315 314 312 313 313 312 312 311 311 311 312 312 311 311 311 311 310 310 310 311 311 311 311 311
315 316 318 318 319 319 319 320 322 323 322 323 325 325 324 326 329 327 323 324 331 335 331 325 325 327 329 330 330 327 326 328 329 328 330 333 332 331 335 343 344 344 348 348 344 341 341 338 334 335 336 331 327 326 326 325 322 320 317 316 316 315 314 313 313 312 312 312 311 311 311 311 312 312 311 310 310 310 310 310 311 311 311 311 312 311 311
Wind_Speed
23 21 21 22 22 23 22 22 23 27 28 26 23 15 3 2 3 4 3 6 13 7 3 3 2 1 4 3 3 2 1 3 3 3 2 0 1 3 1 2 1 1 2 1 2 3 2 1 1 1 1 1 2 5 3 1 3 4 2 2 2 1 3 2 2 3 3 6 7 4 5 8 5 4 7 5 5 4 4 5 3 1 2 2 2 2 1
22 19 20 21 22 22 21 20 21 24 26 25 19 8 0 0 5 4 4 4 8 3 1 3 3 4 3 4 5 2 2 4 4 4 3 1 2 2 1 1 1 1 1 2 2 3 3 0 1 1 1 0 3 5 2 4 4 2 1 1 1 1 1 2 3 4 5 6 6 5 7 7 2 4 8 8 9 9 3 1 2 3 2 2 2 2 1
21 18 18 20 21 21 20 18 20 21 24 23 13 2 1 2 2 4 5 4 2 3 4 3 1 3 3 4 6 5 3 5 5 5 3 1 3 3 1 1 2 1 2 3 2 2 4 2 2 1 2 1 3 4 3 3 3 1 4 3 2 2 1 2 4 2 1 1 2 3 3 4 2 4 10 11 12 11 3 1 3 4 3 3 4 2 1
21 17 17 18 20 21 19 18 19 20 22 20 9 1 1 2 1 3 5 5 5 1 1 3 2 1 2 3 5 4 4 4 2 4 2 2 3 3 1 1 3 3 3 4 3 3 3 2 1 2 1 2 2 3 4 2 3 1 3 2 3 4 2 2 5 5 4 5 5 4 1 2 4 7 11 12 12 10 4 3 3 3 2 4 4 1 2
20 17 16 17 18 20 18 17 18 20 20 15 5 1 1 1 1 1 2 3 3 3 3 4 2 1 1 1 3 4 5 4 1 1 1 2 3 2 1 2 3 1 2 4 2 3 3 3 2 2 1 2 3 4 2 1 2 2 3 2 3 5 3 1 5 4 5 7 6 5 4 2 4 7 10 11 12 11 9 5 1 3 3 4 4 3 3
18 16 15 16 18 19 18 17 18 19 18 11 4 1 1 0 1 0 1 0 0 1 3 4 3 2 1 2 2 4 6 4 2 1 1 1 3 2 2 4 1 4 4 4 2 0 3 3 1 1 1 1 3 5 2 2 4 4 4 3 4 6 1 1 2 2 4 3 5 7 8 5 4 7 10 11 11 10 10 6 3 3 6 4 1 3 5
16 15 14 15 17 18 18 17 17 18 15 8 5 2 1 1 1 2 2 1 3 2 3 4 3 4 3 2 1 4 6 6 5 2 2 2 2 4 3 2 1 3 4 6 4 2 3 0 2 2 0 2 2 3 2 2 4 5 4 3 3 5 1 2 2 2 5 3 4 10 12 8 5 8 9 10 8 7 7 6 6 7 8 6 4 5 7
15 15 14 14 15 16 17 17 16 17 13 6 3 3 1 1 1 3 3 2 2 3 3 1 2 3 3 1 3 4 4 5 6 2 4 2 1 4 5 4 4 6 5 6 4 5 7 5 3 4 2 2 0 1 1 2 5 6 3 1 3 4 1 2 4 3 6 6 4 10 13 12 9 7 4 8 7 6 6 4 4 6 6 3 4 5 5
14 14 14 13 13 15 16 16 16 16 12 4 3 3 3 3 3 1 2 2 3 2 2 1 2 2 3 1 3 5 3 5 6 4 2 6 5 5 7 7 5 6 6 8 5 6 8 8 6 7 5 3 3 2 2 3 1 4 1 1 2 3 0 2 5 4 5 4 6 9 10 12 9 6 2 6 6 4 4 4 3 3 2 1 2 4 1
14 14 13 11 11 13 15 15 15 16 12 8 4 3 5 5 3 2 2 2 2 1 2 2 3 1 2 1 3 5 6 7 4 2 3 0 6 9 11 9 6 6 6 6 7 8 8 8 7 6 5 4 4 2 1 4 3 1 1 1 1 2 3 1 3 3 4 4 4 6 6 8 4 3 3 4 4 1 2 5 5 4 3 1 1 1 1
13 13 12 10 9 11 14 13 14 14 15 13 7 3 5 6 2 2 3 1 3 1 0 2 1 1 3 4 5 4 6 11 5 3 2 2 3 7 9 10 7 5 4 5 7 8 7 6 5 4 5 5 2 1 1 0 1 4 4 1 1 2 4 2 2 2 3 5 2 3 4 3 2 3 3 4 3 2 4 3 5 5 3 1 1 1 1
12 12 11 9 7 9 12 12 13 12 12 13 9 4 5 5 1 1 4 1 4 2 2 1 2 2 4 6 5 4 6 11 8 5 5 2 2 2 6 8 7 4 4 3 3 4 3 2 4 4 4 4 5 4 3 4 4 2 5 4 2 3 3 2 2 2 2 2 5 5 2 1 3 2 1 2 3 3 5 4 4 5 5 3 1 1 1
11 11 10 9 7 7 10 11 12 11 10 10 9 6 6 5 1 1 4 2 2 2 1 3 4 3 5 6 5 5 7 9 8 4 5 4 3 2 2 5 6 5 6 5 7 6 4 3 4 4 5 7 7 6 5 6 4 1 5 5 5 5 3 2 1 1 1 3 4 2 1 1 2 1 1 3 3 1 3 4 4 4 3 3 3 3 1
10 10 10 9 7 6 8 10 11 11 9 9 9 9 7 3 1 1 2 2 2 3 1 3 5 4 6 7 5 5 7 8 8 4 1 2 4 3 2 3 6 7 6 6 6 6 3 2 4 4 5 6 5 4 5 5 3 1 3 3 5 6 4 2 1 1 2 2 2 2 2 1 2 3 3 3 3 3 3 1 4 5 2 2 2 4 4
9 9 9 9 8 6 6 9 11 11 10 10 10 9 6 1 2 2 0 3 0 3 2 2 2 4 6 6 3 3 5 6 5 4 4 2 2 2 1 4 8 6 5 6 4 4 3 3 3 3 3 2 1 3 3 3 3 2 3 4 5 5 3 4 2 1 3 4 3 2 1 2 5 6 5 3 3 3 2 3 2 6 3 3 3 4 5
8 9 8 8 8 6 5 7 10 11 11 12 11 8 4 4 1 2 1 2 2 2 3 4 3 3 5 5 3 2 3 3 3 4 4 3 2 2 2 3 4 4 6 6 3 3 4 3 3 2 1 2 3 2 2 1 2 4 5 5 8 7 3 4 5 2 2 4 3 2 3 4 5 6 6 4 4 4 2 4 2 6 4 4 4 4 6
8 8 7 8 8 7 7 7 9 11 11 12 13 8 2 3 3 1 1 2 2 3 4 2 2 2 1 3 4 2 2 2 2 1 1 1 1 2 2 4 4 4 6 5 3 4 4 3 3 2 2 3 2 1 1 1 1 2 4 5 7 6 4 4 4 2 2 4 2 2 3 3 4 6 6 4 4 4 5 2 4 5 3 3 4 4 5
8 8 7 7 8 8 8 8 8 10 11 11 13 9 2 2 2 1 1 2 2 3 4 0 1 0 1 2 3 3 2 2 2 1 2 2 1 1 1 2 2 3 4 4 3 3 4 2 2 3 2 3 1 2 2 1 2 2 1 2 3 3 3 3 3 2 2 4 2 2 3 4 4 5 5 3 2 4 3 3 6 3 2 1 3 4 3
8 8 6 6 7 8 8 8 8 10 10 11 11 7 2 3 3 1 1 2 2 3 4 2 0 3 2 3 3 3 3 2 0 0 1 1 2 2 1 2 1 1 3 4 3 3 3 1 1 3 2 3 1 2 2 1 2 2 2 2 2 1 2 2 3 3 2 2 2 0 3 4 4 3 3 1 2 2 4 5 3 2 3 1 3 3 2
8 8 7 6 6 7 7 8 8 9 11 10 10 8 2 5 6 5 1 2 2 3 6 7 6 7 4 3 2 2 4 3 1 2 1 2 2 2 3 1 1 2 2 3 2 1 2 2 2 1 2 2 2 2 1 1 2 2 3 2 2 3 2 0 1 2 2 3 2 1 2 4 3 1 1 0 2 4 4 1 2 2 3 3 4 3 3
8 8 8 6 6 6 6 7 8 9 10 9 9 8 1 5 5 4 4 1 3 1 4 4 6 8 8 9 10 9 7 6 5 2 1 3 3 2 4 4 3 2 1 2 2 1 2 3 2 0 1 1 0 1 2 1 2 2 3 2 1 3 3 1 2 2 3 2 1 3 4 5 3 3 3 3 3 4 4 3 2 2 2 3 3 3 3
9 9 8 7 7 6 5 6 8 8 8 9 8 7 5 6 5 5 7 4 5 6 9 11 15 20 23 24 24 22 19 19 18 11 4 3 3 1 3 3 3 3 2 3 4 1 1 2 2 1 2 1 1 1 2 3 1 3 0 2 1 3 5 4 3 2 3 4 5 5 4 3 1 3 4 3 1 1 3 5 3 1 1 2 3 3 3
10 10 9 8 8 7 6 7 8 8 7 8 8 7 8 9 8 7 6 6 6 8 15 18 20 22 22 21 20 18 18 22 25 22 14 5 3 3 2 3 3 2 1 2 4 4 2 2 3 2 2 2 2 3 2 1 2 2 1 2 2 3 3 4 3 1 2 1 1 1 1 0 2 2 1 2 3 2 3 5 3 1 2 3 4 5 5
10 10 10 10 9 8 7 8 9 9 8 8 8 8 10 12 10 7 4 3 1 3 7 8 7 7 9 11 13 15 15 15 18 21 18 14 6 3 2 3 2 2 1 2 3 4 3 2 2 3 1 2 2 3 2 2 3 3 3 1 3 2 2 4 3 3 3 1 2 2 1 2 3 3 3 3 3 2 3 4 3 3 3 4 5 6 6
10 10 10 10 9 9 9 9 9 9 9 9 8 8 10 10 5 3 3 1 0 1 2 3 5 8 8 12 15 16 14 12 11 13 15 21 19 9 3 2 3 4 4 4 2 5 4 2 3 3 1 2 1 2 2 2 2 2 3 1 3 1 3 3 3 3 2 3 5 2 2 2 1 1 2 3 4 3 3 3 3 3 4 4 5 6 6
10 10 10 10 9 10 9 8 8 10 9 9 9 9 10 11 9 5 4 2 1 2 1 3 6 8 10 14 16 15 12 11 11 10 10 18 24 18 10 6 5 5 4 2 3 4 4 3 3 3 2 2 2 2 3 3 2 2 2 3 4 2 3 3 3 3 2 0 1 1 4 4 5 4 3 4 5 5 4 4 5 5 5 5 4 4 5
10 10 10 10 10 10 8 8 9 9 8 9 10 10 11 14 13 11 8 4 2 1 2 3 5 9 13 15 17 15 12 12 13 12 9 8 14 18 15 9 5 4 4 3 3 3 4 3 2 3 3 2 2 2 2 2 3 3 1 3 2 3 3 2 4 4 2 3 5 5 4 2 4 6 5 5 5 6 6 5 5 5 5 5 5 4 4
11 10 9 10 9 9 8 9 8 7 7 9 11 12 14 16 15 13 11 8 4 2 1 2 5 10 12 12 14 15 13 13 12 11 8 6 13 18 14 8 5 4 4 3 2 2 3 3 2 2 2 2 2 1 1 1 3 1 2 3 3 5 6 6 6 5 5 7 9 8 5 4 6 6 5 5 5 6 7 5 5 5 4 5 5 5 4
11 10 9 8 8 8 9 8 7 5 7 9 11 13 12 10 8 10 12 10 7 4 1 3 4 5 7 10 14 16 14 11 12 11 8 8 11 13 10 7 5 4 4 4 3 3 2 3 3 2 1 3 3 0 1 2 2 2 5 5 3 4 6 9 9 6 3 6 9 7 4 5 7 7 5 5 5 7 7 5 4 4 4 5 5 4 4
10 9 8 7 7 9 9 7 6 6 6 7 8 7 4 2 2 6 11 11 9 5 1 2 2 3 5 7 10 12 12 11 13 10 8 11 10 9 9 7 4 3 3 3 3 3 2 1 1 1 1 1 4 2 1 3 2 4 5 5 4 3 4 6 7 5 3 5 8 6 4 5 6 4 3 4 6 8 6 4 5 6 5 7 6 4 5
10 8 6 6 8 8 8 7 7 6 5 5 4 1 1 1 1 7 11 9 8 6 1 1 2 4 5 4 5 7 11 12 9 4 6 9 7 6 7 6 3 2 3 2 2 2 3 2 1 1 0 2 4 3 2 4 1 5 5 5 4 3 4 5 5 4 3 5 7 5 3 4 5 5 3 3 6 9 7 5 7 9 8 7 7 6 6
9 7 6 8 8 7 6 7 7 7 7 8 8 7 6 3 5 13 11 3 4 5 1 1 2 2 3 3 5 7 8 7 4 2 2 3 3 3 3 3 2 2 3 3 2 1 2 2 2 2 1 2 4 3 3 4 3 5 6 5 5 3 3 4 4 3 4 8 9 7 4 2 4 5 5 6 8 10 10 8 8 10 10 8 7 6 6
7 7 8 8 7 5 7 8 9 8 9 11 14 18 16 9 9 13 8 6 5 5 2 1 1 2 3 3 5 6 5 3 2 3 4 3 1 3 3 3 2 3 4 3 2 1 1 2 3 2 1 1 3 3 2 2 5 6 6 6 5 2 2 2 4 5 5 5 5 6 7 8 6 5 7 9 9 11 12 11 9 9 10 8 6 6 6
6 6 6 5 5 6 8 9 8 8 8 10 13 16 13 8 11 14 13 10 5 3 2 1 1 3 3 2 3 5 4 3 2 2 2 3 3 3 2 2 3 3 2 1 2 1 0 1 3 2 1 1 2 2 2 4 6 5 4 4 3 3 3 3 4 5 5 3 3 3 6 7 6 5 7 8 7 8 10 11 9 8 7 5 4 5 7
4 4 4 5 6 7 7 6 6 6 6 8 11 10 4 6 10 13 15 11 3 0 1 1 1 2 2 2 3 5 4 3 1 1 1 1 3 3 2 1 3 1 1 1 1 1 1 2 3 3 1 0 1 1 4 5 5 4 4 5 4 5 6 4 3 3 4 4 4 5 6 8 8 7 7 6 5 6 7 7 7 7 6 5 5 5 7
4 5 5 5 5 4 4 4 6 6 5 5 6 5 1 8 9 8 12 11 5 1 1 0 0 2 1 0 3 4 4 3 1 2 2 1 3 3 2 3 2 1 1 2 2 1 2 1 3 2 1 1 3 4 6 6 6 6 6 7 7 7 7 7 7 5 3 4 7 7 7 8 8 7 6 6 5 5 6 5 5 6 6 5 5 5 6
5 5 4 2 1 2 3 4 6 6 5 2 1 4 7 9 6 4 5 6 5 3 2 1 1 3 2 1 3 3 3 1 1 3 3 1 1 2 3 3 1 1 1 3 0 3 2 1 2 3 2 3 4 6 6 6 8 8 7 7 7 6 5 6 8 8 6 6 7 6 6 7 7 6 6 6 5 5 6 6 6 6 6 6 6 7 8
4 2 2 2 1 1 2 3 4 6 5 1 4 4 3 4 4 2 1 1 2 2 1 1 3 3 1 1 3 2 2 0 1 3 2 1 1 2 2 2 0 1 0 1 3 2 2 1 1 2 3 4 4 5 6 6 7 7 7 8 8 7 6 7 9 10 8 6 5 5 6 6 6 5 6 7 6 5 6 8 8 9 9 8 9 10 9
3 2 2 2 2 2 2 3 6 5 1 4 4 2 1 2 2 0 1 0 1 1 0 1 3 3 3 2 4 3 1 2 3 2 1 1 1 1 1 1 1 1 1 2 3 1 1 1 1 1 3 4 4 5 6 6 6 6 6 8 8 8 8 8 10 12 11 9 9 10 9 9 8 7 5 6 5 4 5 7 9 11 11 11 12 11 9
4 3 2 2 2 4 6 6 3 2 3 2 1 0 1 1 1 1 1 1 0 1 2 2 3 3 4 4 3 4 1 2 2 1 2 2 1 1 2 0 1 1 1 2 3 1 2 1 1 1 3 4 5 5 5 6 6 7 7 7 8 9 11 11 11 14 13 10 11 13 12 11 10 9 7 7 6 4 4 6 9 11 13 14 14 13 12
4 3 2 2 4 8 9 5 1 3 1 1 1 0 1 1 1 1 1 1 1 2 2 2 1 3 3 4 4 3 3 1 2 2 2 2 1 2 3 1 1 1 0 4 3 2 3 1 1 3 4 5 5 5 5 6 6 7 7 7 7 10 12 12 12 13 11 8 7 10 12 12 12 12 11 11 9 8 7 7 9 10 12 12 12 12 12
5 3 4 6 8 8 6 1 2 1 1 1 1 1 1 1 1 1 1 2 2 2 2 2 3 4 4 4 4 3 3 1 1 2 2 1 1 2 3 2 1 1 3 4 1 2 1 1 2 4 5 6 6 5 6 6 7 7 8 8 8 11 12 10 9 11 13 12 11 10 12 13 13 14 15 14 12 10 11 11 11 11 12 12 12 11 11
5 4 5 6 4 2 1 0 1 1 1 1 1 1 1 1 1 1 1 2 1 1 2 2 2 2 2 2 2 1 2 1 1 2 2 1 1 1 2 2 1 2 3 1 2 2 2 3 4 5 5 5 5 6 6 7 7 6 7 8 11 14 16 14 12 11 13 15 15 15 14 14 13 14 16 17 16 13 12 13 15 15 15 14 13 12 11
5 3 2 2 1 1 0 1 1 1 1 1 1 2 1 1 1 2 2 2 1 2 3 3 2 2 2 2 2 1 1 1 1 2 1 0 1 2 1 1 2 2 1 1 1 1 3 3 4 5 4 4 4 6 6 6 6 6 6 6 9 13 15 13 12 10 9 11 14 15 14 14 14 15 16 18 19 17 15 15 16 17 15 14 14 12 11
2 0 1 1 1 0 1 0 1 1 2 2 2 3 3 3 3 3 3 3 2 2 2 2 4 4 3 2 1 1 1 1 2 1 1 0 1 1 2 2 2 1 1 1 1 2 2 3 4 4 5 5 6 6 6 6 6 7 7 7 8 10 11 11 10 8 8 10 13 15 15 15 16 15 15 16 19 19 18 18 17 17 15 15 14 12 10
1 1 2 1 1 1 1 1 1 1 2 2 3 3 4 4 4 4 3 2 2 2 3 2 3 3 2 2 1 1 1 2 2 1 1 2 1 2 2 1 1 1 1 1 2 3 4 5 5 4 6 7 6 5 5 5 6 7 9 9 9 9 10 11 10 9 10 13 15 16 15 15 16 16 16 16 17 19 19 18 17 16 15 14 12 10 9
1 1 1 1 1 1 0 1 2 2 3 3 3 4 4 4 3 3 3 2 3 4 4 1 2 2 2 2 2 1 0 2 2 1 1 2 1 2 1 1 1 1 2 3 4 4 4 4 4 5 7 6 4 4 5 5 6 8 9 10 9 9 9 10 9 10 13 15 16 15 15 16 17 18 18 17 17 17 17 16 14 12 12 11 10 10 9
1 1 1 1 1 1 2 2 2 2 2 2 2 3 3 2 3 4 4 3 3 5 4 1 1 0 2 1 1 1 0 1 1 1 0 2 1 0 1 1 2 2 2 3 5 5 4 4 5 6 6 4 5 6 6 7 8 9 9 10 10 10 10 10 10 12 16 17 15 15 16 17 19 19 19 18 17 16 15 14 12 10 10 10 9 9 8
0 0 1 1 1 2 2 2 2 2 3 3 2 3 3 2 4 5 4 2 2 3 3 2 3 2 1 1 1 2 0 0 1 1 0 1 1 1 1 2 3 3 3 3 4 4 4 5 5 5 4 4 5 6 6 7 8 9 9 10 11 12 12 11 12 15 18 18 17 17 18 19 19 19 18 17 16 16 14 12 11 9 8 8 8 8 7
0 0 1 0 0 2 2 1 2 1 4 4 3 3 3 3 4 4 3 1 0 1 2 1 2 2 0 1 2 1 1 2 1 2 1 1 2 2 2 2 4 4 4 4 4 4 5 4 4 4 5 5 5 6 7 7 8 8 8 11 13 14 15 16 17 18 18 19 20 21 20 20 20 19 18 17 17 16 14 11 10 9 8 7 8 8 8
0 1 1 2 2 2 0 2 1 2 3 3 3 3 3 2 3 4 2 0 2 3 3 1 1 2 2 1 1 1 1 1 2 2 2 2 2 3 2 3 4 4 4 4 4 5 4 4 4 4 4 4 5 5 6 7 7 7 9 12 14 15 16 18 19 18 18 19 21 22 20 19 20 19 19 18 18 16 13 10 9 8 8 9 9 9 9
1 1 1 2 3 3 2 2 2 3 3 3 3 2 2 2 4 3 2 3 2 2 2 1 1 2 1 1 2 1 1 1 1 1 2 2 2 3 4 5 5 4 4 4 4 4 4 4 4 5 5 5 5 5 6 6 7 8 11 14 16 16 17 18 19 20 20 19 20 20 20 20 20 20 19 17 16 13 11 9 8 8 10 11 11 10 9
Wind_Direction
338 341 342 346 352 354 356 359 357 353 353 355 357 353 2 75 268 275 10 164 165 110 23 268 323 249 228 266 250 211 231 253 261 277 293 79 84 58 83 173 136 142 176 139 114 108 84 352 112 158 287 174 255 303 318 90 74 73 67 305 293 90 71 38 305 301 327 307 298 307 8 26 31 338 338 340 319 295 210 187 179 127 359 325 94 83 302
336 341 340 345 352 354 357 1 358 355 352 351 355 355 58 312 266 285 13 162 172 132 195 230 281 277 279 302 282 257 226 234 239 249 257 200 130 103 136 195 134 163 141 96 123 133 111 127 233 122 112 321 313 322 355 99 86 68 150 178 356 17 44 42 24 357 355 352 334 335 11 22 17 306 330 331 328 323 291 153 81 78 7 334 114 113 286
335 340 340 345 351 353 357 1 358 354 348 345 349 339 273 337 259 265 329 360 102 148 180 172 228 287 332 310 291 302 270 236 217 208 225 213 143 132 184 208 114 115 84 64 43 90 114 143 305 46 95 301 308 329 347 72 88 233 207 170 92 80 118 91 89 78 37 33 303 299 337 338 306 322 335 337 341 342 336 129 75 59 2 11 82 119 262
335 339 340 344 350 352 357 1 358 351 345 343 340 259 276 12 349 291 321 4 44 73 188 100 100 329 11 329 293 288 275 273 214 169 193 215 143 115 155 138 82 51 58 72 23 5 68 103 72 81 98 277 276 297 312 29 86 149 175 128 86 91 72 99 130 149 173 181 206 215 182 336 333 340 344 346 346 349 19 86 84 95 58 40 45 1 8
333 337 339 343 348 352 356 0 359 352 347 349 346 284 67 64 284 316 336 349 9 7 11 40 58 136 131 262 274 274 278 292 321 144 202 162 101 76 18 69 87 132 103 89 58 348 16 36 72 113 211 254 281 302 298 355 13 68 97 59 80 87 24 23 137 176 210 185 187 182 137 80 354 352 353 352 352 6 36 49 125 160 112 51 10 350 38
333 337 339 342 346 350 355 1 1 355 352 1 18 351 4 66 270 271 94 221 262 16 337 331 349 355 250 222 242 273 274 257 229 270 285 83 75 87 13 10 40 190 157 114 136 48 35 12 2 139 214 296 336 337 334 336 347 28 45 15 91 101 8 262 127 274 266 189 160 148 115 81 30 18 2 349 358 22 39 32 16 103 108 104 71 58 59
333 338 338 341 345 349 356 2 2 359 356 7 38 16 295 3 337 312 6 127 204 229 273 297 349 358 332 328 322 274 268 260 239 214 67 9 22 95 107 327 18 129 115 112 132 153 128 196 269 216 75 22 8 354 349 335 2 46 46 2 88 102 298 264 85 2 319 353 135 138 114 93 67 40 3 329 342 28 42 37 45 75 99 127 132 86 61
334 338 337 339 346 351 357 1 2 4 2 3 55 62 1 4 337 319 356 357 259 255 271 312 21 356 345 334 294 277 285 301 284 237 123 142 309 86 130 175 111 93 90 99 129 186 170 161 192 176 124 23 295 177 205 278 349 29 55 359 46 79 311 300 73 52 326 343 102 130 117 109 103 79 3 307 327 13 18 19 49 68 83 133 135 91 62
331 336 336 339 350 355 357 360 2 8 12 16 71 68 11 315 281 330 27 320 307 298 288 22 75 358 351 346 296 305 318 325 311 290 166 158 169 142 145 146 95 76 81 91 128 181 161 146 164 171 154 150 182 183 181 190 354 5 10 3 27 73 54 344 61 70 310 338 93 119 113 102 93 75 13 319 338 6 1 357 9 41 61 136 106 79 19
328 334 336 343 357 357 356 360 2 8 23 37 43 21 4 346 306 14 79 263 317 2 293 4 74 224 267 278 297 293 288 311 327 291 310 310 160 154 146 135 100 84 98 121 169 182 163 158 173 173 152 140 157 187 186 159 150 164 174 55 16 104 104 52 72 85 290 302 115 136 112 88 64 7 347 309 306 2 35 11 353 356 25 71 95 126 240
328 334 336 344 360 358 354 358 1 8 24 31 22 340 7 20 341 8 65 256 298 359 8 7 72 222 290 312 305 282 295 322 336 172 235 310 180 152 132 123 110 115 152 185 189 177 163 159 151 127 109 95 88 93 85 97 189 171 152 117 336 87 100 129 128 111 271 293 26 83 71 74 255 297 339 310 301 73 85 36 341 349 20 93 152 188 186
329 333 335 342 359 358 353 354 357 5 18 19 10 342 356 14 334 22 85 163 277 339 39 291 248 272 312 307 303 302 306 313 301 213 183 179 196 148 113 113 112 138 191 182 131 127 122 66 51 53 43 22 6 21 28 328 306 162 146 141 129 87 90 126 118 98 256 322 41 60 59 200 224 253 4 321 321 47 75 47 351 355 4 354 347 352 94
327 330 333 338 349 350 349 352 352 356 5 2 356 347 342 350 341 122 104 128 269 318 25 304 289 296 301 292 298 307 298 300 300 254 176 145 143 162 140 124 134 168 171 121 81 78 70 22 21 9 346 353 2 359 336 313 313 168 158 147 132 127 125 137 118 90 40 20 50 102 191 250 248 244 217 225 257 331 51 19 333 333 346 325 309 299 275
324 328 333 335 336 338 347 350 341 341 352 349 341 342 338 327 209 156 92 111 262 273 270 305 305 304 297 294 303 311 308 324 341 337 195 133 129 152 169 125 141 160 147 104 63 58 77 51 31 12 342 0 13 337 310 313 317 190 171 135 120 129 131 110 56 108 116 78 53 83 68 351 253 244 240 207 204 204 146 143 284 284 261 224 249 265 258
320 325 332 334 335 337 343 340 328 331 349 348 334 339 348 330 200 239 61 111 199 284 250 206 273 299 295 291 300 323 327 340 350 335 316 344 82 128 47 104 130 135 98 79 65 63 82 78 64 39 342 356 338 280 299 324 332 23 75 85 87 97 126 137 121 93 102 98 79 74 99 219 225 233 246 222 201 221 163 123 279 280 250 183 185 229 245
314 319 326 331 333 333 330 326 322 329 347 350 340 346 32 72 106 242 249 122 133 267 249 220 245 277 277 282 300 327 318 320 338 341 340 2 67 90 29 54 102 105 80 72 75 80 76 84 118 132 212 204 196 251 314 349 334 1 35 61 65 58 63 106 98 60 76 105 116 167 195 224 230 233 249 242 205 203 104 69 303 264 232 177 171 212 238
307 310 316 326 330 329 326 323 323 330 342 350 345 342 23 67 45 296 216 124 141 241 255 252 302 335 314 311 321 314 281 310 1 25 291 270 153 122 59 21 19 54 83 78 48 60 81 98 107 110 231 225 168 190 270 76 78 324 351 26 50 49 32 56 77 77 103 109 124 202 213 240 238 230 247 249 196 148 88 41 269 242 207 170 162 192 232
298 303 309 324 331 332 332 329 329 329 334 341 340 333 331 76 34 286 194 115 136 250 259 271 51 17 232 285 293 285 298 339 18 332 266 259 223 171 124 59 28 35 73 89 82 73 88 121 130 131 226 263 109 162 223 160 146 206 282 43 57 46 37 65 102 110 97 102 119 243 256 249 232 235 259 258 148 110 108 222 237 201 157 171 150 160 205
286 295 301 318 327 328 331 334 337 334 331 334 339 339 20 89 71 86 187 144 147 237 272 311 192 219 258 306 299 294 316 328 164 271 319 298 229 209 111 63 56 31 48 75 99 105 99 150 184 130 153 275 281 152 189 201 196 191 126 114 129 85 39 49 89 90 90 109 115 338 285 252 211 228 289 317 124 170 215 225 232 130 128 100 83 106 116
275 286 290 304 315 321 331 338 342 339 331 331 337 340 29 117 101 77 75 183 175 260 276 272 250 238 260 296 256 272 321 317 219 161 160 256 299 58 92 90 8 43 53 70 88 121 130 169 229 139 145 234 233 144 160 278 268 206 159 158 176 154 139 10 153 142 110 76 68 64 265 248 206 146 346 37 163 207 218 205 27 59 113 100 79 88 110
269 277 283 293 301 310 327 332 334 336 333 334 337 336 332 153 135 34 359 200 166 243 279 270 256 252 255 254 248 249 253 248 247 255 243 266 297 86 146 195 187 113 121 135 131 167 161 163 199 176 150 198 89 134 162 357 322 247 170 142 157 150 140 178 223 189 119 102 181 198 213 244 227 157 176 210 209 206 182 126 61 40 90 101 92 93 118
266 268 273 282 289 295 309 316 318 323 331 337 336 325 294 234 236 322 330 268 215 241 270 283 287 282 277 273 268 261 254 252 255 257 260 288 288 196 156 160 152 162 179 130 122 149 177 150 159 149 142 138 84 93 131 127 188 281 341 97 156 201 180 167 177 183 156 174 209 215 221 262 281 148 174 190 178 182 140 117 105 103 119 114 108 109 120
265 264 268 272 279 285 290 299 307 312 323 335 332 317 298 282 286 320 314 262 239 259 268 275 285 284 280 279 277 274 269 263 256 249 235 225 281 278 185 132 124 152 148 117 140 163 158 150 154 144 163 183 127 95 90 153 215 240 153 124 226 229 176 131 112 134 150 150 240 183 140 113 58 71 100 126 104 97 105 102 107 176 168 130 127 136 145
263 261 266 267 271 280 281 286 298 306 315 324 318 304 295 292 304 333 320 242 227 307 277 273 275 263 268 290 302 302 292 271 260 256 238 210 204 312 281 197 136 84 125 203 168 133 120 134 129 110 162 214 152 128 145 219 231 197 141 96 294 270 127 95 88 104 104 62 275 259 182 175 138 91 60 67 82 81 101 114 135 175 150 129 134 141 144
264 261 265 264 265 272 274 279 295 304 309 313 308 300 293 284 290 348 341 279 98 22 313 301 269 258 285 309 304 298 295 283 276 276 245 215 210 219 217 173 124 116 163 196 132 90 90 105 110 112 178 220 171 158 171 185 209 174 137 174 260 222 116 98 90 96 120 215 238 266 347 326 290 100 115 122 107 91 89 108 128 129 110 112 128 136 143
263 261 263 264 264 267 265 270 288 297 303 307 302 292 284 275 265 262 275 277 167 175 240 286 275 288 326 326 304 293 302 303 295 296 271 231 216 200 163 118 92 95 113 113 88 97 108 102 104 130 184 208 164 164 184 188 174 126 141 207 216 148 124 137 117 89 72 206 221 42 31 357 320 296 247 186 150 129 107 97 103 105 101 103 104 115 150
264 260 260 261 264 265 263 267 280 290 300 304 296 283 272 267 261 248 237 221 174 205 251 243 276 310 322 314 301 298 305 307 301 300 295 245 190 162 137 115 101 87 72 61 57 79 92 92 113 160 190 205 157 148 183 181 135 111 153 230 191 131 144 146 110 109 156 205 189 169 148 183 245 243 224 203 171 136 118 111 114 117 127 130 108 87 114
261 257 259 262 263 261 261 265 273 289 305 307 304 297 282 270 259 246 235 226 213 223 259 239 280 309 310 303 305 309 306 305 309 303 282 221 164 146 134 123 125 114 90 93 97 80 94 132 179 186 179 173 152 153 282 128 111 110 241 231 182 159 171 169 151 165 211 211 191 175 148 162 207 212 201 197 172 134 131 146 150 142 148 144 123 105 103
260 257 257 265 267 261 258 261 269 291 307 311 314 310 297 281 259 239 228 218 205 203 304 309 286 298 306 301 306 309 304 305 315 306 268 202 161 147 138 129 131 135 120 109 114 118 139 175 185 188 184 158 147 199 290 133 147 235 235 225 214 190 186 180 167 167 217 209 188 178 153 162 189 193 187 186 165 140 143 161 160 151 154 145 138 143 149
258 256 256 261 264 264 262 264 272 285 295 307 315 312 307 338 307 221 204 195 193 193 109 359 275 287 308 297 295 300 300 305 313 297 229 184 165 157 154 145 130 113 101 92 109 137 165 194 155 227 268 130 121 143 184 148 187 260 253 239 238 224 205 192 171 166 201 189 170 168 167 160 158 146 147 172 158 138 136 155 155 149 152 148 147 154 156
247 242 253 259 257 261 262 259 268 277 277 285 302 291 155 1 70 147 152 165 195 209 208 337 258 294 313 281 261 282 289 292 301 282 180 163 161 162 151 135 109 85 99 103 111 137 157 160 124 143 312 75 99 132 149 130 173 274 268 246 237 217 193 194 195 199 190 136 119 107 94 113 116 106 110 188 166 137 128 153 159 150 146 143 141 148 154
239 229 247 254 253 260 264 263 271 272 256 253 253 243 254 279 155 148 141 140 212 205 186 351 284 306 316 277 274 294 296 294 308 24 70 100 130 124 75 61 77 97 97 106 112 134 162 155 135 144 155 88 93 103 106 118 172 241 238 218 226 238 210 193 184 166 143 128 116 101 90 133 175 169 168 187 176 147 140 152 155 144 138 128 115 124 143
232 236 249 248 247 262 273 274 274 265 256 260 263 259 260 251 193 185 209 273 267 225 202 96 265 279 283 276 294 314 331 344 359 35 27 6 66 101 46 21 44 49 41 76 134 171 157 113 116 144 239 31 84 101 121 182 213 229 219 197 195 211 212 174 127 122 138 142 127 136 164 188 206 190 162 165 171 161 151 148 140 129 129 123 107 109 126
226 246 249 244 256 274 277 277 273 267 266 269 269 267 260 228 197 204 221 239 251 257 265 111 136 279 297 328 321 329 11 49 35 52 44 345 357 77 72 358 19 41 25 42 113 129 102 100 123 151 241 352 76 112 214 247 250 242 210 177 152 116 104 96 100 125 151 145 93 124 154 149 132 129 143 154 167 164 149 139 131 126 125 129 135 138 135
230 247 243 257 275 277 272 267 262 267 268 258 264 280 271 189 194 205 214 219 222 27 260 217 172 262 316 359 313 314 7 56 42 27 90 343 2 57 99 42 34 63 240 337 63 93 171 163 153 164 207 249 109 189 228 238 245 232 179 154 140 124 121 125 144 167 170 138 108 108 122 122 124 140 157 165 172 167 146 133 134 140 146 160 177 171 157
240 242 250 269 277 271 270 257 236 232 239 253 278 316 125 171 185 194 204 215 230 226 217 285 144 193 195 348 273 304 5 39 353 346 25 32 12 25 66 78 77 230 274 47 74 216 241 186 150 150 214 199 193 219 218 200 196 199 185 176 178 169 158 160 164 159 138 113 112 119 131 140 147 156 163 170 174 160 144 137 138 148 165 184 196 197 184
235 238 244 245 241 262 263 235 219 232 256 273 40 76 119 147 143 131 178 211 240 239 190 76 270 225 192 196 250 299 6 23 313 14 28 61 50 8 27 62 105 237 6 46 131 219 217 130 114 136 197 217 215 223 218 189 182 190 190 187 190 181 159 147 141 130 110 100 110 121 133 142 147 152 157 164 164 147 148 161 168 171 181 189 191 200 200
232 227 200 187 214 255 216 216 264 294 297 235 144 124 118 122 108 81 112 181 235 239 164 139 247 250 165 173 266 307 357 301 64 57 64 145 59 16 21 48 118 209 58 289 251 209 129 58 72 162 221 255 255 234 222 205 197 196 184 180 186 178 156 148 141 131 120 116 132 143 141 144 161 179 173 168 170 168 170 177 179 180 184 185 185 191 198
201 173 176 204 232 233 241 306 329 328 238 167 172 196 322 69 92 337 295 102 169 253 217 184 225 220 179 211 269 291 33 82 54 50 107 162 58 29 33 13 320 10 55 274 268 213 96 323 310 197 248 273 262 234 220 203 203 208 192 183 183 170 158 161 160 155 158 170 179 177 167 165 178 191 187 179 183 185 178 174 171 170 171 172 172 174 179
173 177 200 214 229 261 287 312 343 104 145 152 167 237 67 79 117 194 208 169 200 235 205 194 219 217 183 183 235 269 267 106 117 164 154 129 122 110 96 164 278 22 64 267 268 118 111 218 241 213 239 246 238 230 213 189 196 209 199 186 180 171 168 176 180 176 173 173 175 175 173 172 173 175 177 178 179 177 180 181 174 167 162 161 163 165 165
173 192 233 270 279 291 302 313 138 146 139 67 33 56 107 183 228 207 155 164 237 247 216 161 173 241 219 170 174 232 261 217 162 153 112 88 86 103 112 163 246 56 194 249 257 88 99 155 228 233 234 231 228 224 202 188 202 210 198 186 180 175 175 180 185 180 171 155 158 173 176 173 172 173 176 178 175 167 163 165 164 162 157 154 157 161 160
180 218 295 308 297 292 300 297 158 164 39 56 54 330 301 211 221 242 160 181 209 230 224 171 176 211 215 170 162 205 236 198 128 90 83 108 189 112 112 131 115 123 227 239 231 82 113 217 245 249 245 239 233 216 194 195 207 207 195 186 178 174 176 178 180 180 173 163 162 171 175 174 175 177 174 169 158 147 142 139 137 139 140 140 141 145 147
204 251 297 309 296 265 249 246 150 107 58 69 79 331 307 292 266 237 233 241 235 220 230 227 207 205 193 157 155 203 227 176 128 84 90 134 151 83 80 92 130 195 230 235 85 103 190 215 229 242 245 243 234 219 208 206 203 193 187 184 177 175 177 175 171 174 176 172 169 171 173 172 170 168 164 154 140 128 127 131 132 132 132 131 132 133 136
232 263 293 291 260 186 132 309 264 174 166 147 140 160 212 260 247 211 216 247 250 224 220 203 167 173 213 203 145 156 211 188 98 74 76 107 81 83 106 191 214 220 233 70 99 187 221 226 236 245 250 249 239 224 213 204 185 167 165 171 170 169 169 165 159 157 159 162 163 162 158 152 145 144 147 145 139 131 126 127 131 134 132 129 126 125 128
221 212 71 350 288 299 100 118 239 215 205 204 186 178 188 203 209 211 217 217 207 222 243 199 154 164 216 240 162 152 189 141 94 104 158 98 59 111 199 215 221 169 111 172 224 238 247 256 260 254 244 243 240 223 205 194 178 160 150 152 162 163 158 153 152 151 149 151 151 147 142 138 135 133 135 140 141 140 136 134 135 137 134 130 126 123 124
203 152 115 129 240 243 125 136 190 208 207 209 198 190 193 199 206 218 233 241 253 277 271 220 153 155 202 228 199 175 151 112 120 158 138 110 132 229 221 181 133 78 109 224 240 235 234 245 251 242 234 236 233 213 194 184 169 158 153 157 167 169 159 152 152 152 150 150 147 142 139 137 135 132 131 134 137 138 138 138 139 139 135 131 130 129 130
244 188 107 119 212 254 185 187 204 211 212 208 201 201 207 216 233 250 251 249 269 281 284 279 123 153 208 204 177 193 163 101 125 182 117 111 167 261 355 69 158 207 183 202 228 238 241 244 243 240 240 236 211 184 180 174 170 171 167 160 159 160 155 150 149 148 149 147 142 137 136 137 135 133 132 130 131 133 134 134 136 137 134 132 132 134 136
213 190 151 164 199 209 205 208 227 253 260 243 226 227 227 230 266 272 260 245 256 272 276 291 82 255 272 277 136 163 152 74 125 209 199 101 122 8 29 68 232 233 197 196 217 231 238 237 236 239 240 221 183 175 180 179 178 178 170 158 156 157 155 152 151 151 150 146 140 137 140 140 138 137 135 131 131 135 136 135 135 135 134 134 137 140 141
15 165 202 191 195 232 229 201 190 252 282 295 291 269 257 248 258 267 270 272 279 272 252 187 142 157 265 318 70 115 175 291 183 205 306 76 128 168 165 188 221 241 239 220 218 224 231 237 246 255 248 214 186 183 184 179 177 177 170 161 159 157 153 149 149 149 149 146 143 143 145 143 140 138 137 135 136 139 140 140 140 141 141 145 149 150 150
37 164 245 222 262 282 294 69 98 277 304 325 331 303 295 287 274 274 273 236 176 18 11 33 79 101 98 11 44 62 250 244 153 121 143 197 184 174 172 198 214 226 233 225 222 229 239 242 246 256 249 221 192 183 180 175 173 173 164 155 151 150 148 147 146 145 146 147 146 145 145 145 144 144 143 141 141 141 143 145 147 148 150 157 160 159 157
255 251 243 233 232 241 271 81 116 248 288 307 293 278 295 294 270 270 280 249 95 71 57 15 5 44 65 84 93 120 229 216 112 123 194 222 186 158 182 220 224 222 227 234 235 239 245 240 225 225 231 221 197 182 172 163 158 155 148 142 141 140 140 140 140 139 141 144 145 144 144 147 149 148 147 146 144 144 146 150 154 155 158 162 164 163 160
163 218 255 257 245 222 202 197 210 229 254 266 258 255 284 278 261 275 341 39 74 96 120 140 82 60 64 201 192 152 128 96 105 159 209 234 211 176 188 212 221 212 213 233 248 253 251 238 218 207 205 200 186 168 151 144 145 146 143 140 138 137 137 138 139 138 138 139 141 142 144 146 147 147 146 146 147 149 153 159 165 168 166 164 163 162 160